Regional Weather Roundup
Issued by NWS

Home | Current Version | Previous Version | Graphics & Text | Print | Product List | Glossary Off
Versions: 1 2 3 4 5 6 7 8 9 10 11 12 13 14 15 16 17 18 19 20 21 22 23 24 25 26 27 28 29 30 31 32 33 34 35 36 37 38 39 40 41 42 43 44 45 46 47 48 49 50

000
ASUS43 KTOP 232308
RWRKS

WEATHER ROUNDUP FOR KANSAS
NATIONAL WEATHER SERVICE GOODLAND KS
600 PM CDT SUN APR 23 2017

NOTE:  "FAIR" INDICATES FEW OR NO CLOUDS BELOW 12,000 FEET WITH NO
SIGNIFICANT WEATHER AND/OR OBSTRUCTIONS TO VISIBILITY.

KSZ001>006-013>018-027>032-041>047-240000-
NORTHWEST KANSAS

CITY           SKY/WX    TMP DP  RH WIND       PRES   REMARKS
GOODLAND       CLOUDY    67  39  35 S25G43    29.81F
HAYS           MOSUNNY   66  34  30 S23G30    29.94F
HILL CITY      CLOUDY    70  30  22 S22G36    29.90F
RUSSELL        SUNNY     66  36  32 S21       29.94F
$$

KSZ061>065-074>080-084>089-240000-
SOUTHWEST KANSAS

CITY           SKY/WX    TMP DP  RH WIND       PRES   REMARKS
DODGE CITY     CLOUDY    66  33  29 S24G31    29.95F
ELKHART          N/A     71  38  30 S24         N/A
GARDEN CITY    CLOUDY    69  36  29 S23G32    29.91F
GREAT BEND     MOSUNNY   65  37  35 SE16      29.96F
PRATT          CLOUDY    64  34  32 S17       29.99F
$$

KSZ066>073-081>083-090>101-240000-
SOUTHEAST KANSAS

CITY           SKY/WX    TMP DP  RH WIND       PRES   REMARKS
CHANUTE        SUNNY     69  36  29 NW3       30.07F
COFFEYVILLE    SUNNY     69  40  34 NW6       30.07S
HUTCHINSON     SUNNY     68  37  32 S16       30.01F
MEDICINE LODGE   N/A     66  36  32 SE10      30.01F
NEWTON         SUNNY     65  40  39 S12G18    30.02
PARSONS        SUNNY     68  36  30 CALM      30.08F
WICHITA INTL   MOSUNNY   67  37  33 SE13      30.02F
WICHITA JABRA  SUNNY     67  32  27 S10       30.02F
WICHITA MCCONL SUNNY     68  34  28 S10       30.02F
WINFIELD       SUNNY     67  37  33 VRB3      30.06F
$$

KSZ007>012-019>026-033>040-048>060-102>105-240000-
NORTHEAST KANSAS

CITY           SKY/WX    TMP DP  RH WIND       PRES   REMARKS
CONCORDIA      CLOUDY    65  35  33 S18G25    29.97F
EMPORIA        SUNNY     68  38  33 SE9       30.03F
LAWRENCE       SUNNY     70  36  28 S12       30.02F
MANHATTAN      SUNNY     68  35  29 SW12      30.00F
MARYSVILLE     MOSUNNY   68  34  28 S13G18    29.98F
OLATHE IND     SUNNY     69  34  27 VRB5      30.04F
OLATHE EXE     SUNNY     67  31  26 S5        30.04F
SALINA         MOSUNNY   69  36  29 S15       29.99F
TOPEKA BILLARD SUNNY     69  35  28 S9G18     30.01F
TOPEKA FORBES  SUNNY     70  39  32 S6        30.02F
$$



USA.gov is the U.S. government's official web portal to all federal, state and local government web resources and services.